Time,TemperatureF,DewpointF,PressureIn,WindDirection,WindDirectionDegrees,WindSpeedMPH,WindSpeedGustMPH,Humidity,HourlyPrecipIn,Conditions,Clouds,dailyrainin,SoftwareType,DateUTC
2013-01-12 00:04:00,52.2,34.6,29.81,NNW,338,12.0,12.0,51,0.00,,---,0.00,VWS V14.01,2013-01-12 06:04:00,
2013-01-12 00:09:00,51.8,34.3,29.81,NW,308,9.0,12.0,51,0.00,,---,0.00,VWS V14.01,2013-01-12 06:09:00,
2013-01-12 00:14:00,51.5,33.5,29.81,NW,323,12.0,14.0,50,0.00,,---,0.00,VWS V14.01,2013-01-12 06:14:00,
2013-01-12 00:20:00,51.0,33.0,29.81,NW,322,9.0,14.0,50,0.00,,---,0.00,VWS V14.01,2013-01-12 06:20:00,
2013-01-12 00:25:00,50.7,33.2,29.81,NNW,332,9.0,14.0,51,0.00,,---,0.00,VWS V14.01,2013-01-12 06:25:00,
2013-01-12 00:30:00,50.5,33.5,29.82,NW,304,7.0,14.0,52,0.00,,---,0.00,VWS V14.01,2013-01-12 06:30:00,
2013-01-12 00:35:00,50.2,33.7,29.81,NNW,328,8.0,10.0,53,0.00,,---,0.00,VWS V14.01,2013-01-12 06:35:00,
2013-01-12 00:40:00,50.1,33.2,29.82,NNW,342,7.0,10.0,52,0.00,,---,0.00,VWS V14.01,2013-01-12 06:40:00,
2013-01-12 00:45:00,50.0,33.1,29.82,NW,311,5.0,10.0,52,0.00,,---,0.00,VWS V14.01,2013-01-12 06:45:00,
2013-01-12 00:51:00,49.8,33.4,29.82,NNW,327,4.0,10.0,53,0.00,,---,0.00,VWS V14.01,2013-01-12 06:51:00,
2013-01-12 00:56:00,49.6,33.2,29.82,NW,309,4.0,10.0,53,0.00,,---,0.00,VWS V14.01,2013-01-12 06:56:00,
2013-01-12 01:01:00,49.4,33.0,29.82,NNW,335,4.0,6.0,53,0.00,,---,0.00,VWS V14.01,2013-01-12 07:01:00,
2013-01-12 01:06:00,49.2,32.8,29.83,NW,317,5.0,7.0,53,0.00,,---,0.00,VWS V14.01,2013-01-12 07:06:00,
2013-01-12 01:11:00,49.2,32.8,29.83,NW,322,4.0,7.0,53,0.00,,---,0.00,VWS V14.01,2013-01-12 07:11:00,
2013-01-12 01:16:00,49.1,32.2,29.83,NNW,340,3.0,7.0,52,0.00,,---,0.00,VWS V14.01,2013-01-12 07:16:00,
2013-01-12 01:21:00,49.2,31.4,29.84,NNW,340,3.0,7.0,50,0.00,,---,0.00,VWS V14.01,2013-01-12 07:21:00,
2013-01-12 01:26:00,49.3,31.0,29.84,NW,318,4.0,7.0,49,0.00,,---,0.00,VWS V14.01,2013-01-12 07:26:00,
2013-01-12 01:31:00,49.3,31.0,29.84,NW,326,2.0,3.0,49,0.00,,---,0.00,VWS V14.01,2013-01-12 07:31:00,
2013-01-12 01:36:00,49.2,30.9,29.84,NW,324,2.0,3.0,49,0.00,,---,0.00,VWS V14.01,2013-01-12 07:36:00,
2013-01-12 01:42:00,49.0,31.2,29.83,NW,326,4.0,4.0,50,0.00,,---,0.00,VWS V14.01,2013-01-12 07:42:00,
2013-01-12 01:47:00,48.8,31.5,29.84,NW,318,6.0,7.0,51,0.00,,---,0.00,VWS V14.01,2013-01-12 07:47:00,
2013-01-12 01:52:00,48.5,32.2,29.84,NW,316,5.0,7.0,53,0.00,,---,0.00,VWS V14.01,2013-01-12 07:52:00,
2013-01-12 01:57:00,48.1,32.3,29.85,North,6,3.0,7.0,54,0.00,,---,0.00,VWS V14.01,2013-01-12 07:57:00,
2013-01-12 02:02:00,48.5,30.2,29.85,North,356,2.0,3.0,49,0.00,,---,0.00,VWS V14.01,2013-01-12 08:02:00,
2013-01-12 02:07:00,48.6,30.3,29.86,NNW,333,2.0,4.0,49,0.00,,---,0.00,VWS V14.01,2013-01-12 08:07:00,
2013-01-12 02:12:00,48.4,30.6,29.85,North,4,4.0,4.0,50,0.00,,---,0.00,VWS V14.01,2013-01-12 08:12:00,
2013-01-12 02:17:00,48.1,31.8,29.85,NW,322,2.0,4.0,53,0.00,,---,0.00,VWS V14.01,2013-01-12 08:17:00,
2013-01-12 02:22:00,47.7,31.4,29.85,NW,322,3.0,4.0,53,0.00,,---,0.00,VWS V14.01,2013-01-12 08:22:00,
2013-01-12 02:27:00,47.5,31.2,29.85,NW,322,3.0,5.0,53,0.00,,---,0.00,VWS V14.01,2013-01-12 08:27:00,
2013-01-12 02:33:00,47.3,32.4,29.85,NW,323,3.0,4.0,56,0.00,,---,0.00,VWS V14.01,2013-01-12 08:33:00,
2013-01-12 02:38:00,46.8,32.8,29.86,NW,323,4.0,4.0,58,0.00,,---,0.00,VWS V14.01,2013-01-12 08:38:00,
2013-01-12 02:43:00,46.5,32.1,29.85,NW,309,4.0,6.0,57,0.00,,---,0.00,VWS V14.01,2013-01-12 08:43:00,
2013-01-12 02:48:00,46.5,31.7,29.86,NNW,336,4.0,6.0,56,0.00,,---,0.00,VWS V14.01,2013-01-12 08:48:00,
2013-01-12 02:53:00,46.5,31.7,29.86,NW,319,5.0,7.0,56,0.00,,---,0.00,VWS V14.01,2013-01-12 08:53:00,
2013-01-12 02:58:00,46.5,32.1,29.87,WNW,297,3.0,7.0,57,0.00,,---,0.00,VWS V14.01,2013-01-12 08:58:00,
2013-01-12 03:03:00,46.3,32.3,29.87,NNW,330,4.0,7.0,58,0.00,,---,0.00,VWS V14.01,2013-01-12 09:03:00,
2013-01-12 03:08:00,46.3,31.0,29.86,NW,309,6.0,8.0,55,0.00,,---,0.00,VWS V14.01,2013-01-12 09:08:00,
2013-01-12 03:13:00,46.5,30.3,29.86,NW,322,7.0,9.0,53,0.00,,---,0.00,VWS V14.01,2013-01-12 09:13:00,
2013-01-12 03:19:00,46.7,29.1,29.86,NNW,330,7.0,11.0,50,0.00,,---,0.00,VWS V14.01,2013-01-12 09:19:00,
2013-01-12 03:24:00,47.0,27.8,29.85,NW,322,7.0,13.0,47,0.00,,---,0.00,VWS V14.01,2013-01-12 09:24:00,
2013-01-12 03:29:00,47.0,27.8,29.84,NNW,330,8.0,14.0,47,0.00,,---,0.00,VWS V14.01,2013-01-12 09:29:00,
2013-01-12 03:34:00,47.1,27.4,29.84,NNW,342,8.0,14.0,46,0.00,,---,0.00,VWS V14.01,2013-01-12 09:34:00,
2013-01-12 03:39:00,47.1,26.9,29.84,NNW,342,11.0,14.0,45,0.00,,---,0.00,VWS V14.01,2013-01-12 09:39:00,
2013-01-12 03:44:00,47.0,26.8,29.84,NW,316,6.0,15.0,45,0.00,,---,0.00,VWS V14.01,2013-01-12 09:44:00,
2013-01-12 03:49:00,46.9,27.2,29.84,NW,317,11.0,16.0,46,0.00,,---,0.00,VWS V14.01,2013-01-12 09:49:00,
2013-01-12 03:54:00,46.9,26.7,29.85,NW,314,10.0,18.0,45,0.00,,---,0.00,VWS V14.01,2013-01-12 09:54:00,
2013-01-12 04:00:00,46.8,26.6,29.86,NW,316,9.0,18.0,45,0.00,,---,0.00,VWS V14.01,2013-01-12 10:00:00,
2013-01-12 04:05:00,46.7,27.0,29.88,WNW,290,5.0,12.0,46,0.00,,---,0.00,VWS V14.01,2013-01-12 10:05:00,
2013-01-12 04:10:00,46.6,26.9,29.89,NNW,328,7.0,12.0,46,0.00,,---,0.00,VWS V14.01,2013-01-12 10:10:00,
2013-01-12 04:15:00,46.3,27.2,29.89,North,349,7.0,12.0,47,0.00,,---,0.00,VWS V14.01,2013-01-12 10:15:00,
2013-01-12 04:20:00,46.3,26.7,29.88,NW,322,9.0,12.0,46,0.00,,---,0.00,VWS V14.01,2013-01-12 10:20:00,
2013-01-12 04:25:00,46.2,26.6,29.87,NW,322,5.0,12.0,46,0.00,,---,0.00,VWS V14.01,2013-01-12 10:25:00,
2013-01-12 04:30:00,46.0,26.9,29.87,NW,316,7.0,12.0,47,0.00,,---,0.00,VWS V14.01,2013-01-12 10:30:00,
2013-01-12 04:35:00,45.8,27.2,29.88,NNW,330,4.0,9.0,48,0.00,,---,0.00,VWS V14.01,2013-01-12 10:35:00,
2013-01-12 04:41:00,45.7,27.1,29.87,NNW,340,10.0,10.0,48,0.00,,---,0.00,VWS V14.01,2013-01-12 10:41:00,
2013-01-12 04:46:00,45.5,28.0,29.86,NW,322,9.0,12.0,50,0.00,,---,0.00,VWS V14.01,2013-01-12 10:46:00,
2013-01-12 04:51:00,45.1,28.5,29.84,NNW,333,13.0,17.0,52,0.00,,---,0.00,VWS V14.01,2013-01-12 10:51:00,
2013-01-12 04:56:00,45.0,28.9,29.84,North,11,5.0,17.0,53,0.00,,---,0.00,VWS V14.01,2013-01-12 10:56:00,
2013-01-12 05:01:00,44.9,29.3,29.84,North,11,11.0,11.0,54,0.00,,---,0.00,VWS V14.01,2013-01-12 11:01:00,
2013-01-12 05:06:00,44.7,29.5,29.82,NNE,15,12.0,15.0,55,0.00,,---,0.00,VWS V14.01,2013-01-12 11:06:00,
2013-01-12 05:11:00,44.5,29.4,29.83,NE,49,11.0,15.0,55,0.00,,---,0.00,VWS V14.01,2013-01-12 11:11:00,
2013-01-12 05:17:00,44.5,29.8,29.82,NNE,18,12.0,15.0,56,0.00,,---,0.00,VWS V14.01,2013-01-12 11:17:00,
2013-01-12 05:22:00,44.4,30.1,29.81,NNW,342,12.0,15.0,57,0.00,,---,0.00,VWS V14.01,2013-01-12 11:22:00,
2013-01-12 05:27:00,44.4,29.3,29.83,NNE,18,9.0,15.0,55,0.00,,---,0.00,VWS V14.01,2013-01-12 11:27:00,
2013-01-12 05:32:00,44.3,30.0,29.82,NW,322,11.0,13.0,57,0.00,,---,0.00,VWS V14.01,2013-01-12 11:32:00,
2013-01-12 05:37:00,44.4,30.6,29.87,West,264,3.0,13.0,58,0.00,,---,0.00,VWS V14.01,2013-01-12 11:37:00,
2013-01-12 05:42:00,44.1,31.1,29.89,West,274,2.0,13.0,60,0.00,,---,0.00,VWS V14.01,2013-01-12 11:42:00,
2013-01-12 05:48:00,43.9,31.3,29.90,WNW,286,4.0,13.0,61,0.00,,---,0.00,VWS V14.01,2013-01-12 11:48:00,
2013-01-12 05:53:00,43.7,31.5,29.88,NW,324,2.0,13.0,62,0.00,,---,0.00,VWS V14.01,2013-01-12 11:53:00,
2013-01-12 05:58:00,43.6,30.6,29.87,NNW,342,6.0,13.0,60,0.00,,---,0.00,VWS V14.01,2013-01-12 11:58:00,
2013-01-12 06:03:00,44.1,30.3,29.85,NNW,330,11.0,16.0,58,0.00,,---,0.00,VWS V14.01,2013-01-12 12:03:00,
2013-01-12 06:08:00,44.3,29.6,29.85,NW,322,12.0,21.0,56,0.00,,---,0.00,VWS V14.01,2013-01-12 12:08:00,
2013-01-12 06:13:00,44.4,30.1,29.85,NW,312,14.0,21.0,57,0.00,,---,0.00,VWS V14.01,2013-01-12 12:13:00,
2013-01-12 06:18:00,44.3,30.5,29.86,NNW,332,12.0,21.0,58,0.00,,---,0.00,VWS V14.01,2013-01-12 12:18:00,
2013-01-12 06:23:00,44.1,30.7,29.86,NNW,332,13.0,21.0,59,0.00,,---,0.00,VWS V14.01,2013-01-12 12:23:00,
2013-01-12 06:29:00,44.0,30.6,29.86,NNW,344,15.0,22.0,59,0.00,,---,0.00,VWS V14.01,2013-01-12 12:29:00,
2013-01-12 06:34:00,43.8,30.8,29.89,NNE,13,14.0,15.0,60,0.00,,---,0.00,VWS V14.01,2013-01-12 12:34:00,
2013-01-12 06:39:00,43.7,31.1,29.88,NE,39,14.0,15.0,61,0.00,,---,0.00,VWS V14.01,2013-01-12 12:39:00,
2013-01-12 06:44:00,43.6,31.0,29.89,North,350,13.0,17.0,61,0.00,,---,0.00,VWS V14.01,2013-01-12 12:44:00,
2013-01-12 06:49:00,43.4,32.0,29.89,North,8,14.0,20.0,64,0.00,,---,0.00,VWS V14.01,2013-01-12 12:49:00,
2013-01-12 06:55:00,43.1,32.2,29.88,NNE,30,17.0,21.0,65,0.00,,---,0.00,VWS V14.01,2013-01-12 12:55:00,
2013-01-12 07:00:00,42.8,32.2,29.87,North,11,13.0,22.0,66,0.00,,---,0.00,VWS V14.01,2013-01-12 13:00:00,
2013-01-12 07:05:00,42.6,32.4,29.88,SW,231,10.0,16.0,67,0.00,,---,0.00,VWS V14.01,2013-01-12 13:05:00,
2013-01-12 07:10:00,42.5,32.3,29.88,NNE,17,16.0,21.0,67,0.00,,---,0.00,VWS V14.01,2013-01-12 13:10:00,
2013-01-12 07:15:00,42.3,32.9,29.88,North,11,22.0,22.0,69,0.00,,---,0.00,VWS V14.01,2013-01-12 13:15:00,
2013-01-12 07:20:00,42.0,32.9,29.89,North,352,13.0,22.0,70,0.00,,---,0.00,VWS V14.01,2013-01-12 13:20:00,
2013-01-12 07:25:00,41.8,32.8,29.90,North,360,14.0,24.0,70,0.00,,---,0.00,VWS V14.01,2013-01-12 13:25:00,
2013-01-12 07:30:00,41.6,32.9,29.90,NNE,12,10.0,24.0,71,0.00,,---,0.00,VWS V14.01,2013-01-12 13:30:00,
2013-01-12 07:36:00,41.5,33.2,29.92,North,359,8.0,17.0,72,0.00,,---,0.00,VWS V14.01,2013-01-12 13:36:00,
2013-01-12 07:41:00,41.4,32.7,29.92,NNE,15,15.0,19.0,71,0.00,,---,0.00,VWS V14.01,2013-01-12 13:41:00,
2013-01-12 07:46:00,41.3,33.0,29.92,North,354,16.0,24.0,72,0.00,,---,0.00,VWS V14.01,2013-01-12 13:46:00,
2013-01-12 07:51:00,41.2,32.9,29.92,North,3,19.0,24.0,72,0.00,,---,0.00,VWS V14.01,2013-01-12 13:51:00,
2013-01-12 07:56:00,41.1,32.8,29.91,North,5,13.0,24.0,72,0.00,,---,0.00,VWS V14.01,2013-01-12 13:56:00,
2013-01-12 08:01:00,40.9,32.9,29.91,North,3,20.0,21.0,73,0.00,,---,0.00,VWS V14.01,2013-01-12 14:01:00,
2013-01-12 08:07:00,40.7,33.4,29.91,North,9,10.0,21.0,75,0.00,,---,0.00,VWS V14.01,2013-01-12 14:07:00,
2013-01-12 08:12:00,40.7,33.4,29.91,NW,325,10.0,21.0,75,0.00,,---,0.00,VWS V14.01,2013-01-12 14:12:00,
2013-01-12 08:17:00,40.6,33.3,29.90,North,3,15.0,21.0,75,0.00,,---,0.00,VWS V14.01,2013-01-12 14:17:00,
2013-01-12 08:22:00,40.4,33.5,29.92,NNE,17,14.0,21.0,76,0.00,,---,0.00,VWS V14.01,2013-01-12 14:22:00,
2013-01-12 08:27:00,40.2,33.2,29.92,North,349,13.0,21.0,76,0.00,,---,0.00,VWS V14.01,2013-01-12 14:27:00,
2013-01-12 08:32:00,40.1,33.2,29.90,NW,321,19.0,20.0,76,0.00,,---,0.00,VWS V14.01,2013-01-12 14:32:00,
2013-01-12 08:37:00,39.9,33.3,29.90,North,9,11.0,24.0,77,0.00,,---,0.00,VWS V14.01,2013-01-12 14:37:00,
2013-01-12 08:42:00,39.6,33.0,29.89,WNW,298,11.0,24.0,77,0.00,,---,0.00,VWS V14.01,2013-01-12 14:42:00,
2013-01-12 08:48:00,39.4,32.5,29.90,NW,312,9.0,26.0,76,0.00,,---,0.00,VWS V14.01,2013-01-12 14:48:00,
2013-01-12 08:53:00,39.1,32.5,29.89,North,356,20.0,26.0,77,0.00,,---,0.00,VWS V14.01,2013-01-12 14:53:00,
2013-01-12 08:58:00,39.0,32.4,29.89,North,3,15.0,26.0,77,0.00,,---,0.00,VWS V14.01,2013-01-12 14:58:00,
2013-01-12 09:03:00,38.9,32.0,29.91,NNW,345,12.0,20.0,76,0.00,,---,0.00,VWS V14.01,2013-01-12 15:03:00,
2013-01-12 09:08:00,38.9,32.6,29.92,NNW,340,11.0,20.0,78,0.00,,---,0.00,VWS V14.01,2013-01-12 15:08:00,
2013-01-12 09:13:00,38.7,32.1,29.90,North,8,18.0,22.0,77,0.00,,---,0.00,VWS V14.01,2013-01-12 15:13:00,
2013-01-12 09:18:00,38.5,31.6,29.91,North,6,14.0,26.0,76,0.00,,---,0.00,VWS V14.01,2013-01-12 15:18:00,
2013-01-12 09:23:00,38.3,31.4,29.92,North,352,15.0,26.0,76,0.00,,---,0.00,VWS V14.01,2013-01-12 15:23:00,
2013-01-12 09:28:00,38.2,31.3,29.93,North,8,15.0,26.0,76,0.00,,---,0.00,VWS V14.01,2013-01-12 15:28:00,
2013-01-12 09:34:00,38.2,31.3,29.91,NW,325,14.0,21.0,76,0.00,,---,0.00,VWS V14.01,2013-01-12 15:34:00,
2013-01-12 09:39:00,38.2,31.3,29.91,NNW,344,13.0,21.0,76,0.00,,---,0.00,VWS V14.01,2013-01-12 15:39:00,
2013-01-12 09:44:00,38.2,31.0,29.92,NNE,12,14.0,24.0,75,0.00,,---,0.00,VWS V14.01,2013-01-12 15:44:00,
2013-01-12 09:49:00,38.2,30.7,29.91,North,357,19.0,24.0,74,0.00,,---,0.00,VWS V14.01,2013-01-12 15:49:00,
2013-01-12 09:54:00,38.1,29.9,29.93,WNW,302,11.0,24.0,72,0.00,,---,0.00,VWS V14.01,2013-01-12 15:54:00,
2013-01-12 09:59:00,38.3,30.1,29.93,North,8,17.0,24.0,72,0.00,,---,0.00,VWS V14.01,2013-01-12 15:59:00,
2013-01-12 10:04:00,38.1,28.5,29.92,NNE,18,19.0,22.0,68,0.00,,---,0.00,VWS V14.01,2013-01-12 16:04:00,
2013-01-12 10:09:00,38.0,28.8,29.91,North,5,18.0,22.0,69,0.00,,---,0.00,VWS V14.01,2013-01-12 16:09:00,
2013-01-12 10:15:00,38.1,29.5,29.91,NNE,33,14.0,22.0,71,0.00,,---,0.00,VWS V14.01,2013-01-12 16:15:00,
2013-01-12 10:20:00,38.1,28.1,29.88,WNW,291,13.0,28.0,67,0.00,,---,0.00,VWS V14.01,2013-01-12 16:20:00,
2013-01-12 10:25:00,37.8,28.2,29.88,NNW,347,25.0,28.0,68,0.00,,---,0.00,VWS V14.01,2013-01-12 16:25:00,
2013-01-12 10:30:00,37.5,27.5,29.89,North,8,17.0,29.0,67,0.00,,---,0.00,VWS V14.01,2013-01-12 16:30:00,
2013-01-12 10:35:00,37.6,28.0,29.91,NNW,342,21.0,26.0,68,0.00,,---,0.00,VWS V14.01,2013-01-12 16:35:00,
2013-01-12 10:40:00,37.8,27.5,29.91,NNW,342,17.0,26.0,66,0.00,,---,0.00,VWS V14.01,2013-01-12 16:40:00,
2013-01-12 10:45:00,37.8,26.7,29.93,North,1,19.0,29.0,64,0.00,,---,0.00,VWS V14.01,2013-01-12 16:45:00,
2013-01-12 10:50:00,38.1,27.4,29.94,NW,321,10.0,29.0,65,0.00,,---,0.00,VWS V14.01,2013-01-12 16:50:00,
2013-01-12 10:55:00,38.6,27.5,29.95,NNW,339,19.0,29.0,64,0.00,,---,0.00,VWS V14.01,2013-01-12 16:55:00,
2013-01-12 11:00:00,38.6,27.9,29.94,NNE,21,16.0,29.0,65,0.00,,---,0.00,VWS V14.01,2013-01-12 17:00:00,
2013-01-12 11:06:00,38.4,27.3,29.93,North,9,20.0,25.0,64,0.00,,---,0.00,VWS V14.01,2013-01-12 17:06:00,
2013-01-12 11:11:00,38.4,27.7,29.91,NNW,335,18.0,25.0,65,0.00,,---,0.00,VWS V14.01,2013-01-12 17:11:00,
2013-01-12 11:16:00,38.1,27.0,29.90,NNE,23,14.0,27.0,64,0.00,,---,0.00,VWS V14.01,2013-01-12 17:16:00,
2013-01-12 11:21:00,38.3,27.6,29.90,NW,324,16.0,27.0,65,0.00,,---,0.00,VWS V14.01,2013-01-12 17:21:00,
2013-01-12 11:26:00,38.9,27.4,29.90,North,358,16.0,27.0,63,0.00,,---,0.00,VWS V14.01,2013-01-12 17:26:00,
2013-01-12 11:31:00,39.4,28.6,29.91,NNW,345,15.0,21.0,65,0.00,,---,0.00,VWS V14.01,2013-01-12 17:31:00,
2013-01-12 11:36:00,39.8,27.5,29.90,NNW,344,20.0,24.0,61,0.00,,---,0.00,VWS V14.01,2013-01-12 17:36:00,
2013-01-12 11:41:00,39.7,27.0,29.90,NNE,15,20.0,31.0,60,0.00,,---,0.00,VWS V14.01,2013-01-12 17:41:00,
2013-01-12 11:46:00,39.6,27.3,29.89,NNE,15,20.0,31.0,61,0.00,,---,0.00,VWS V14.01,2013-01-12 17:46:00,
2013-01-12 11:52:00,39.5,27.2,29.88,NNE,30,26.0,31.0,61,0.00,,---,0.00,VWS V14.01,2013-01-12 17:52:00,
2013-01-12 11:57:00,39.5,26.8,29.89,North,360,22.0,31.0,60,0.00,,---,0.00,VWS V14.01,2013-01-12 17:57:00,
2013-01-12 12:02:00,39.9,26.8,29.89,North,11,22.0,26.0,59,0.00,,---,0.00,VWS V14.01,2013-01-12 18:02:00,
2013-01-12 12:07:00,40.7,27.9,29.88,North,6,17.0,26.0,60,0.00,,---,0.00,VWS V14.01,2013-01-12 18:07:00,
2013-01-12 12:12:00,40.6,27.4,29.88,NNE,20,16.0,26.0,59,0.00,,---,0.00,VWS V14.01,2013-01-12 18:12:00,
2013-01-12 12:17:00,40.4,27.2,29.89,NNW,333,14.0,26.0,59,0.00,,---,0.00,VWS V14.01,2013-01-12 18:17:00,
2013-01-12 12:22:00,40.3,27.1,29.89,NNW,330,13.0,26.0,59,0.00,,---,0.00,VWS V14.01,2013-01-12 18:22:00,
2013-01-12 12:27:00,40.1,26.5,29.89,North,355,12.0,26.0,58,0.00,,---,0.00,VWS V14.01,2013-01-12 18:27:00,
2013-01-12 12:33:00,40.1,26.5,29.89,NNW,342,20.0,23.0,58,0.00,,---,0.00,VWS V14.01,2013-01-12 18:33:00,
2013-01-12 12:38:00,40.0,26.0,29.89,NW,326,15.0,25.0,57,0.00,,---,0.00,VWS V14.01,2013-01-12 18:38:00,
2013-01-12 12:43:00,40.0,26.4,29.88,WNW,293,17.0,25.0,58,0.00,,---,0.00,VWS V14.01,2013-01-12 18:43:00,
2013-01-12 12:48:00,40.3,26.7,29.88,North,355,18.0,26.0,58,0.00,,---,0.00,VWS V14.01,2013-01-12 18:48:00,
2013-01-12 12:53:00,40.4,26.4,29.88,North,360,11.0,26.0,57,0.00,,---,0.00,VWS V14.01,2013-01-12 18:53:00,
2013-01-12 12:58:00,40.3,25.4,29.88,NNW,335,12.0,26.0,55,0.00,,---,0.00,VWS V14.01,2013-01-12 18:58:00,
2013-01-12 13:03:00,40.3,26.3,29.88,NNW,342,15.0,20.0,57,0.00,,---,0.00,VWS V14.01,2013-01-12 19:03:00,
2013-01-12 13:08:00,40.2,27.0,29.88,NNW,330,21.0,23.0,59,0.00,,---,0.00,VWS V14.01,2013-01-12 19:08:00,
2013-01-12 13:13:00,40.1,26.1,29.88,NNW,332,14.0,24.0,57,0.00,,---,0.00,VWS V14.01,2013-01-12 19:13:00,
2013-01-12 13:19:00,40.2,25.8,29.88,NE,41,14.0,25.0,56,0.00,,---,0.00,VWS V14.01,2013-01-12 19:19:00,
2013-01-12 13:24:00,40.1,25.2,29.88,NNW,340,16.0,25.0,55,0.00,,---,0.00,VWS V14.01,2013-01-12 19:24:00,
2013-01-12 13:29:00,40.1,25.2,29.88,NNW,336,12.0,25.0,55,0.00,,---,0.00,VWS V14.01,2013-01-12 19:29:00,
2013-01-12 13:34:00,40.1,25.7,29.88,NNW,330,18.0,22.0,56,0.00,,---,0.00,VWS V14.01,2013-01-12 19:34:00,
2013-01-12 13:39:00,40.4,25.5,29.88,NNE,21,20.0,27.0,55,0.00,,---,0.00,VWS V14.01,2013-01-12 19:39:00,
2013-01-12 13:44:00,40.7,25.4,29.88,North,1,30.0,30.0,54,0.00,,---,0.00,VWS V14.01,2013-01-12 19:44:00,
2013-01-12 13:49:00,40.8,24.5,29.87,NNW,332,18.0,30.0,52,0.00,,---,0.00,VWS V14.01,2013-01-12 19:49:00,
2013-01-12 13:54:00,41.2,24.9,29.86,North,354,17.0,30.0,52,0.00,,---,0.00,VWS V14.01,2013-01-12 19:54:00,
2013-01-12 14:00:00,40.5,24.3,29.86,North,360,21.0,30.0,52,0.00,,---,0.00,VWS V14.01,2013-01-12 20:00:00,
2013-01-12 14:05:00,40.8,25.0,29.86,NNW,330,18.0,28.0,53,0.00,,---,0.00,VWS V14.01,2013-01-12 20:05:00,
2013-01-12 14:10:00,40.9,24.6,29.87,NW,323,16.0,28.0,52,0.00,,---,0.00,VWS V14.01,2013-01-12 20:10:00,
2013-01-12 14:15:00,41.1,24.8,29.87,NNW,328,23.0,28.0,52,0.00,,---,0.00,VWS V14.01,2013-01-12 20:15:00,
2013-01-12 14:20:00,41.1,24.4,29.87,North,4,18.0,28.0,51,0.00,,---,0.00,VWS V14.01,2013-01-12 20:20:00,
2013-01-12 14:25:00,40.8,23.6,29.88,North,5,23.0,28.0,50,0.00,,---,0.00,VWS V14.01,2013-01-12 20:25:00,
2013-01-12 14:30:00,40.1,22.5,29.88,NNE,14,20.0,28.0,49,0.00,,---,0.00,VWS V14.01,2013-01-12 20:30:00,
2013-01-12 14:35:00,40.1,23.4,29.87,NNE,15,19.0,24.0,51,0.00,,---,0.00,VWS V14.01,2013-01-12 20:35:00,
2013-01-12 14:40:00,40.2,23.5,29.89,North,355,20.0,24.0,51,0.00,,---,0.00,VWS V14.01,2013-01-12 20:40:00,
2013-01-12 14:46:00,40.1,23.4,29.90,NW,326,17.0,24.0,51,0.00,,---,0.00,VWS V14.01,2013-01-12 20:46:00,
2013-01-12 14:51:00,40.2,23.5,29.90,NNW,340,18.0,24.0,51,0.00,,---,0.00,VWS V14.01,2013-01-12 20:51:00,
2013-01-12 14:56:00,40.4,23.7,29.90,NNW,342,15.0,26.0,51,0.00,,---,0.00,VWS V14.01,2013-01-12 20:56:00,
2013-01-12 15:01:00,40.6,23.4,29.90,NW,314,18.0,23.0,50,0.00,,---,0.00,VWS V14.01,2013-01-12 21:01:00,
2013-01-12 15:06:00,40.3,23.1,29.92,NW,323,20.0,26.0,50,0.00,,---,0.00,VWS V14.01,2013-01-12 21:06:00,
2013-01-12 15:11:00,40.4,23.7,29.92,North,354,23.0,26.0,51,0.00,,---,0.00,VWS V14.01,2013-01-12 21:11:00,
2013-01-12 15:17:00,40.3,22.7,29.92,NNW,348,17.0,26.0,49,0.00,,---,0.00,VWS V14.01,2013-01-12 21:17:00,
2013-01-12 15:22:00,40.4,23.2,29.92,North,9,21.0,28.0,50,0.00,,---,0.00,VWS V14.01,2013-01-12 21:22:00,
2013-01-12 15:27:00,40.5,22.4,29.91,NNE,15,20.0,29.0,48,0.00,,---,0.00,VWS V14.01,2013-01-12 21:27:00,
2013-01-12 15:32:00,40.6,23.0,29.92,NW,323,14.0,22.0,49,0.00,,---,0.00,VWS V14.01,2013-01-12 21:32:00,
2013-01-12 15:37:00,40.8,23.1,29.92,NW,324,21.0,23.0,49,0.00,,---,0.00,VWS V14.01,2013-01-12 21:37:00,
2013-01-12 15:42:00,40.5,21.4,29.92,North,6,18.0,28.0,46,0.00,,---,0.00,VWS V14.01,2013-01-12 21:42:00,
2013-01-12 15:47:00,40.1,21.0,29.92,NNW,335,22.0,28.0,46,0.00,,---,0.00,VWS V14.01,2013-01-12 21:47:00,
2013-01-12 15:53:00,39.6,21.0,29.93,NNW,327,17.0,28.0,47,0.00,,---,0.00,VWS V14.01,2013-01-12 21:53:00,
2013-01-12 15:58:00,39.5,21.0,29.93,North,5,19.0,29.0,47,0.00,,---,0.00,VWS V14.01,2013-01-12 21:58:00,
2013-01-12 16:03:00,39.1,21.1,29.93,NNE,14,24.0,28.0,48,0.00,,---,0.00,VWS V14.01,2013-01-12 22:03:00,
2013-01-12 16:08:00,38.9,20.4,29.94,NNW,335,15.0,28.0,47,0.00,,---,0.00,VWS V14.01,2013-01-12 22:08:00,
2013-01-12 16:13:00,39.2,20.2,29.94,NW,313,21.0,28.0,46,0.00,,---,0.00,VWS V14.01,2013-01-12 22:13:00,
2013-01-12 16:18:00,39.0,19.5,29.94,NNW,336,23.0,29.0,45,0.00,,---,0.00,VWS V14.01,2013-01-12 22:18:00,
2013-01-12 16:24:00,38.8,19.8,29.94,NNW,333,9.0,29.0,46,0.00,,---,0.00,VWS V14.01,2013-01-12 22:24:00,
2013-01-12 16:29:00,38.8,20.8,29.95,NW,318,15.0,29.0,48,0.00,,---,0.00,VWS V14.01,2013-01-12 22:29:00,
2013-01-12 16:34:00,38.9,21.4,29.95,NNW,333,18.0,22.0,49,0.00,,---,0.00,VWS V14.01,2013-01-12 22:34:00,
2013-01-12 16:39:00,38.8,21.8,29.95,NNW,334,14.0,26.0,50,0.00,,---,0.00,VWS V14.01,2013-01-12 22:39:00,
2013-01-12 16:44:00,38.6,22.5,29.95,NW,326,18.0,26.0,52,0.00,,---,0.00,VWS V14.01,2013-01-12 22:44:00,
2013-01-12 16:49:00,38.3,21.8,29.95,NW,326,16.0,26.0,51,0.00,,---,0.00,VWS V14.01,2013-01-12 22:49:00,
2013-01-12 16:54:00,37.8,21.3,29.95,NW,324,12.0,26.0,51,0.00,,---,0.00,VWS V14.01,2013-01-12 22:54:00,
2013-01-12 17:00:00,37.4,20.5,29.96,NNW,344,17.0,26.0,50,0.00,,---,0.00,VWS V14.01,2013-01-12 23:00:00,
2013-01-12 17:05:00,36.9,20.0,29.96,North,358,16.0,26.0,50,0.00,,---,0.00,VWS V14.01,2013-01-12 23:05:00,
2013-01-12 17:10:00,36.5,19.6,29.96,NW,313,21.0,27.0,50,0.00,,---,0.00,VWS V14.01,2013-01-12 23:10:00,
2013-01-12 17:15:00,36.3,19.5,29.97,NW,309,16.0,27.0,50,0.00,,---,0.00,VWS V14.01,2013-01-12 23:15:00,
2013-01-12 17:20:00,36.0,19.2,29.98,North,11,12.0,27.0,50,0.00,,---,0.00,VWS V14.01,2013-01-12 23:20:00,
2013-01-12 17:25:00,35.9,19.1,29.97,North,9,24.0,27.0,50,0.00,,---,0.00,VWS V14.01,2013-01-12 23:25:00,
2013-01-12 17:30:00,35.7,19.4,29.97,North,351,19.0,27.0,51,0.00,,---,0.00,VWS V14.01,2013-01-12 23:30:00,
2013-01-12 17:35:00,35.5,19.6,29.97,NNE,25,13.0,23.0,52,0.00,,---,0.00,VWS V14.01,2013-01-12 23:35:00,
2013-01-12 17:40:00,35.3,19.5,29.97,NNW,338,21.0,23.0,52,0.00,,---,0.00,VWS V14.01,2013-01-12 23:40:00,
2013-01-12 17:46:00,35.0,19.6,29.97,NNE,27,16.0,23.0,53,0.00,,---,0.00,VWS V14.01,2013-01-12 23:46:00,
2013-01-12 17:51:00,34.8,19.4,29.98,NNE,18,16.0,23.0,53,0.00,,---,0.00,VWS V14.01,2013-01-12 23:51:00,
2013-01-12 17:56:00,34.6,19.7,29.98,NW,311,15.0,23.0,54,0.00,,---,0.00,VWS V14.01,2013-01-12 23:56:00,
2013-01-12 18:01:00,34.4,19.5,29.99,North,8,9.0,17.0,54,0.00,,---,0.00,VWS V14.01,2013-01-13 00:01:00,
2013-01-12 18:06:00,34.1,19.2,29.99,NW,319,15.0,19.0,54,0.00,,---,0.00,VWS V14.01,2013-01-13 00:06:00,
2013-01-12 18:11:00,33.9,19.9,30.00,NNW,328,14.0,19.0,56,0.00,,---,0.00,VWS V14.01,2013-01-13 00:11:00,
2013-01-12 18:16:00,33.7,19.3,30.01,NNW,333,12.0,19.0,55,0.00,,---,0.00,VWS V14.01,2013-01-13 00:16:00,
2013-01-12 18:21:00,33.6,19.6,30.00,NW,324,11.0,19.0,56,0.00,,---,0.00,VWS V14.01,2013-01-13 00:21:00,
2013-01-12 18:27:00,33.3,19.3,30.00,NNW,348,8.0,19.0,56,0.00,,---,0.00,VWS V14.01,2013-01-13 00:27:00,
2013-01-12 18:32:00,33.1,19.5,30.00,North,350,11.0,13.0,57,0.00,,---,0.00,VWS V14.01,2013-01-13 00:32:00,
2013-01-12 18:37:00,32.9,19.4,30.00,NNW,335,13.0,18.0,57,0.00,,---,0.00,VWS V14.01,2013-01-13 00:37:00,
2013-01-12 18:42:00,32.8,18.8,30.00,NW,316,10.0,18.0,56,0.00,,---,0.00,VWS V14.01,2013-01-13 00:42:00,
2013-01-12 18:47:00,32.6,18.7,30.01,NNE,18,16.0,18.0,56,0.00,,---,0.00,VWS V14.01,2013-01-13 00:47:00,
2013-01-12 18:52:00,32.4,18.0,30.01,NNW,330,11.0,18.0,55,0.00,,---,0.00,VWS V14.01,2013-01-13 00:52:00,
2013-01-12 18:57:00,32.3,18.4,30.01,NW,309,9.0,18.0,56,0.00,,---,0.00,VWS V14.01,2013-01-13 00:57:00,
2013-01-12 19:02:00,32.3,18.0,30.01,North,352,13.0,19.0,55,0.00,,---,0.00,VWS V14.01,2013-01-13 01:02:00,
2013-01-12 19:07:00,32.1,17.8,30.01,North,358,10.0,19.0,55,0.00,,---,0.00,VWS V14.01,2013-01-13 01:07:00,
2013-01-12 19:12:00,32.0,17.7,30.02,NNW,347,10.0,19.0,55,0.00,,---,0.00,VWS V14.01,2013-01-13 01:12:00,
2013-01-12 19:17:00,31.7,18.2,30.01,NNW,328,7.0,19.0,57,0.00,,---,0.00,VWS V14.01,2013-01-13 01:17:00,
2013-01-12 19:23:00,31.4,19.1,30.02,NNW,343,8.0,19.0,60,0.00,,---,0.00,VWS V14.01,2013-01-13 01:23:00,
2013-01-12 19:28:00,31.1,19.2,30.02,NNE,14,11.0,19.0,61,0.00,,---,0.00,VWS V14.01,2013-01-13 01:28:00,
2013-01-12 19:33:00,30.9,19.0,30.01,North,1,11.0,12.0,61,0.00,,---,0.00,VWS V14.01,2013-01-13 01:33:00,
2013-01-12 19:38:00,30.8,19.0,30.01,NNW,328,11.0,14.0,61,0.00,,---,0.00,VWS V14.01,2013-01-13 01:38:00,
2013-01-12 19:43:00,30.5,19.0,30.03,NNW,333,5.0,14.0,62,0.00,,---,0.00,VWS V14.01,2013-01-13 01:43:00,
2013-01-12 19:48:00,30.3,18.9,30.04,WNW,294,3.0,14.0,62,0.00,,---,0.00,VWS V14.01,2013-01-13 01:48:00,
2013-01-12 19:53:00,30.2,19.1,30.04,NNW,340,8.0,14.0,63,0.00,,---,0.00,VWS V14.01,2013-01-13 01:53:00,
2013-01-12 19:58:00,30.0,19.3,30.05,NE,47,5.0,14.0,64,0.00,,---,0.00,VWS V14.01,2013-01-13 01:58:00,
2013-01-12 20:03:00,29.8,19.5,30.05,North,358,7.0,8.0,65,0.00,,---,0.00,VWS V14.01,2013-01-13 02:03:00,
2013-01-12 20:09:00,29.7,19.4,30.05,NNW,341,3.0,8.0,65,0.00,,---,0.00,VWS V14.01,2013-01-13 02:09:00,
2013-01-12 20:14:00,29.6,19.3,30.05,NNW,335,4.0,9.0,65,0.00,,---,0.00,VWS V14.01,2013-01-13 02:14:00,
2013-01-12 20:19:00,29.3,19.4,30.07,NW,325,6.0,9.0,66,0.00,,---,0.00,VWS V14.01,2013-01-13 02:19:00,
2013-01-12 20:24:00,29.2,20.3,30.07,NNW,339,3.0,9.0,69,0.00,,---,0.00,VWS V14.01,2013-01-13 02:24:00,
2013-01-12 20:29:00,29.0,20.1,30.06,NW,323,10.0,10.0,69,0.00,,---,0.00,VWS V14.01,2013-01-13 02:29:00,
2013-01-12 20:34:00,29.1,19.5,30.07,NNW,330,8.0,9.0,67,0.00,,---,0.00,VWS V14.01,2013-01-13 02:34:00,
2013-01-12 20:40:00,29.1,19.2,30.07,NW,311,7.0,12.0,66,0.00,,---,0.00,VWS V14.01,2013-01-13 02:40:00,
2013-01-12 20:45:00,29.0,19.1,30.06,NW,314,8.0,12.0,66,0.00,,---,0.00,VWS V14.01,2013-01-13 02:45:00,
2013-01-12 20:50:00,28.9,19.3,30.06,NNW,336,9.0,12.0,67,0.00,,---,0.00,VWS V14.01,2013-01-13 02:50:00,
2013-01-12 20:55:00,28.9,19.3,30.06,NW,323,8.0,13.0,67,0.00,,---,0.00,VWS V14.01,2013-01-13 02:55:00,
2013-01-12 21:00:00,28.8,19.2,30.06,NW,320,6.0,13.0,67,0.00,,---,0.00,VWS V14.01,2013-01-13 03:00:00,
2013-01-12 21:05:00,28.6,19.4,30.07,NW,322,6.0,11.0,68,0.00,,---,0.00,VWS V14.01,2013-01-13 03:05:00,
2013-01-12 21:11:00,28.8,18.9,30.08,NW,315,6.0,14.0,66,0.00,,---,0.00,VWS V14.01,2013-01-13 03:11:00,
2013-01-12 21:16:00,28.7,18.4,30.07,NNW,329,12.0,14.0,65,0.00,,---,0.00,VWS V14.01,2013-01-13 03:16:00,
2013-01-12 21:21:00,28.7,18.1,30.07,NW,319,11.0,17.0,64,0.00,,---,0.00,VWS V14.01,2013-01-13 03:21:00,
2013-01-12 21:26:00,28.6,18.0,30.07,NNW,340,11.0,17.0,64,0.00,,---,0.00,VWS V14.01,2013-01-13 03:26:00,
2013-01-12 21:31:00,28.6,18.3,30.07,North,354,8.0,15.0,65,0.00,,---,0.00,VWS V14.01,2013-01-13 03:31:00,
2013-01-12 21:36:00,28.5,18.6,30.07,North,350,12.0,17.0,66,0.00,,---,0.00,VWS V14.01,2013-01-13 03:36:00,
2013-01-12 21:41:00,28.3,18.8,30.06,NNW,337,8.0,17.0,67,0.00,,---,0.00,VWS V14.01,2013-01-13 03:41:00,
2013-01-12 21:47:00,28.1,18.9,30.05,NNW,330,13.0,17.0,68,0.00,,---,0.00,VWS V14.01,2013-01-13 03:47:00,
2013-01-12 21:52:00,27.9,19.1,30.04,NW,315,11.0,18.0,69,0.00,,---,0.00,VWS V14.01,2013-01-13 03:52:00,
2013-01-12 21:57:00,27.7,19.2,30.03,NNW,327,11.0,18.0,70,0.00,,---,0.00,VWS V14.01,2013-01-13 03:57:00,
2013-01-12 22:02:00,27.4,19.2,30.02,NNW,330,15.0,16.0,71,0.00,,---,0.00,VWS V14.01,2013-01-13 04:02:00,
2013-01-12 22:07:00,27.3,19.5,30.03,NNW,339,11.0,18.0,72,0.00,,---,0.00,VWS V14.01,2013-01-13 04:07:00,
2013-01-12 22:12:00,27.2,19.7,30.04,NW,321,9.0,18.0,73,0.00,,---,0.00,VWS V14.01,2013-01-13 04:12:00,
2013-01-12 22:17:00,27.1,19.9,30.05,NW,323,10.0,18.0,74,0.00,,---,0.00,VWS V14.01,2013-01-13 04:17:00,
2013-01-12 22:23:00,27.1,19.9,30.06,NNW,333,9.0,18.0,74,0.00,,---,0.00,VWS V14.01,2013-01-13 04:23:00,
2013-01-12 22:28:00,27.1,20.2,30.07,NW,316,8.0,18.0,75,0.00,,---,0.00,VWS V14.01,2013-01-13 04:28:00,
2013-01-12 22:33:00,27.1,20.2,30.07,NNW,340,10.0,11.0,75,0.00,,---,0.00,VWS V14.01,2013-01-13 04:33:00,
2013-01-12 22:38:00,27.0,20.1,30.08,NW,307,3.0,11.0,75,0.00,,---,0.00,VWS V14.01,2013-01-13 04:38:00,
2013-01-12 22:43:00,27.0,20.5,30.09,NW,323,5.0,11.0,76,0.00,,---,0.00,VWS V14.01,2013-01-13 04:43:00,
2013-01-12 22:48:00,26.9,20.4,30.09,North,349,6.0,11.0,76,0.00,,---,0.00,VWS V14.01,2013-01-13 04:48:00,
2013-01-12 22:53:00,26.8,20.6,30.09,West,270,3.0,11.0,77,0.00,,---,0.00,VWS V14.01,2013-01-13 04:53:00,
2013-01-12 22:58:00,26.7,20.5,30.10,WNW,298,6.0,11.0,77,0.00,,---,0.00,VWS V14.01,2013-01-13 04:58:00,
2013-01-12 23:00:00,26.7,20.5,30.10,NW,304,9.0,11.0,77,0.00,,---,0.00,VWS V14.01,2013-01-13 05:00:00,
2013-01-12 23:03:00,26.7,20.8,30.10,WNW,303,6.0,11.0,78,0.00,,---,0.00,VWS V14.01,2013-01-13 05:03:00,
2013-01-12 23:04:00,26.7,20.8,30.10,NNW,333,8.0,13.0,78,0.00,,---,0.00,VWS V14.01,2013-01-13 05:04:00,
2013-01-12 23:10:00,26.7,20.5,30.11,NW,315,4.0,13.0,77,0.00,,---,0.00,VWS V14.01,2013-01-13 05:10:00,
2013-01-12 23:15:00,26.6,20.4,30.11,WNW,300,5.0,13.0,77,0.00,,---,0.00,VWS V14.01,2013-01-13 05:15:00,
2013-01-12 23:20:00,26.6,20.7,30.11,NNW,330,6.0,13.0,78,0.00,,---,0.00,VWS V14.01,2013-01-13 05:20:00,
2013-01-12 23:25:00,26.5,20.6,30.12,NNW,340,7.0,13.0,78,0.00,,---,0.00,VWS V14.01,2013-01-13 05:25:00,
2013-01-12 23:30:00,26.4,20.5,30.12,North,359,5.0,13.0,78,0.00,,---,0.00,VWS V14.01,2013-01-13 05:30:00,
2013-01-12 23:35:00,26.5,20.6,30.12,NNW,328,5.0,9.0,78,0.00,,---,0.00,VWS V14.01,2013-01-13 05:35:00,
2013-01-12 23:40:00,26.4,20.5,30.12,NNE,14,6.0,9.0,78,0.00,,---,0.00,VWS V14.01,2013-01-13 05:40:00,
2013-01-12 23:45:00,26.4,20.5,30.12,NNW,333,9.0,10.0,78,0.00,,---,0.00,VWS V14.01,2013-01-13 05:45:00,
2013-01-12 23:50:00,26.5,20.9,30.13,NW,316,7.0,10.0,79,0.00,,---,0.00,VWS V14.01,2013-01-13 05:50:00,
2013-01-12 23:56:00,26.5,20.9,30.14,NW,314,5.0,11.0,79,0.00,,---,0.00,VWS V14.01,2013-01-13 05:56:00,